Simultaneous Nadir Overpasses (SNOs) Predictions

Prediction of SNOs between GOES-15 and TERRA Satellite Orbit:

Table of predicted SNOs for the next 14.0 days since TLE Epoch: 5/7/2022
Index Date Time (GOES-15) GOES-15 Lat,Lon TERRA Lat,Lon Distance(km) Time Diff (sec)
1 05/07/2022 18:40:58 -0.18,-128.00 -0.83,-124.99 342.60 80
2 05/08/2022 07:02:21 0.18,-127.94 -0.29,-130.18 254.94 80
3 05/10/2022 06:47:25 0.18,-127.87 0.32,-127.22 74.40 80
4 05/12/2022 06:35:09 0.19,-127.81 0.95,-124.26 403.56 80
5 05/12/2022 18:56:23 -0.18,-127.84 0.17,-129.41 179.57 80
6 05/14/2022 18:46:47 -0.19,-127.76 -0.47,-126.45 149.06 80
7 05/15/2022 07:08:10 0.18,-127.70 -0.63,-131.64 448.35 80
8 05/16/2022 18:34:30 -0.19,-127.68 -1.06,-123.48 476.80 80
9 05/17/2022 06:55:53 0.18,-127.61 -0.04,-128.68 120.88 80
10 05/19/2022 06:40:56 0.19,-127.52 0.56,-125.71 205.71 80
11 05/19/2022 19:02:10 -0.19,-127.54 0.49,-130.87 378.49 80
